| time (UTC) | temp C | wind direction | speed KPH | gust KPH | rain 1hr cm | rain 24hr cm | rain mn cm | humidity % | barometer mb |
| 20260906051534 | 22 | 55 | 0.0 | 0.0 | 0.00 | 0.00 | 0.00 | 94 | 1012.1 |
| 20260906050049 | 22 | 56 | 0.0 | 4.8 | 0.00 | 0.00 | 0.00 | 95 | 1012.0 |
| 20260906044529 | 22 | 44 | 0.0 | 0.0 | 0.00 | 0.00 | 0.00 | 95 | 1012.0 |
| 20260906043027 | 22 | 44 | 0.0 | 8.0 | 0.00 | 0.00 | 0.00 | 95 | 1011.8 |
| 20260906041525 | 22 | 18 | 0.0 | 4.8 | 0.00 | 0.00 | 0.00 | 94 | 1011.7 |
| 20260906040022 | 22 | 58 | 0.0 | 11.3 | 0.00 | 0.00 | 0.00 | 94 | 1011.5 |
| 20260906034531 | 23 | 47 | 0.0 | 8.0 | 0.00 | 0.00 | 0.00 | 94 | 1011.6 |
| 20260906033026 | 23 | 43 | 0.0 | 9.7 | 0.00 | 0.00 | 0.00 | 93 | 1011.6 |
| 20260906031526 | 23 | 55 | 0.0 | 8.0 | 0.00 | 0.00 | 0.00 | 93 | 1011.4 |
| 20260906030021 | 23 | 63 | 1.6 | 9.7 | 0.00 | 0.00 | 0.00 | 92 | 1011.4 |
| 20260906024520 | 23 | 63 | 1.6 | 12.9 | 0.00 | 0.00 | 0.00 | 91 | 1011.5 |
| 20260906023024 | 23 | 66 | 1.6 | 14.5 | 0.00 | 0.00 | 0.00 | 91 | 1011.3 |
| 20260906021520 | 23 | 65 | 0.0 | 9.7 | 0.00 | 0.00 | 0.00 | 91 | 1011.2 |
| 20260906020018 | 23 | 55 | 1.6 | 14.5 | 0.00 | 0.00 | 0.00 | 92 | 1011.2 |
| 20260906014518 | 23 | 77 | 0.0 | 8.0 | 0.00 | 0.00 | 0.00 | 89 | 1010.7 |
| 20260906013018 | 23 | 67 | 0.0 | 4.8 | 0.00 | 0.00 | 0.00 | 87 | 1010.5 |
| 20260906011518 | 24 | 58 | 0.0 | 0.0 | 0.00 | 0.00 | 0.00 | 85 | 1010.4 |
| 20260906010017 | 24 | 58 | 0.0 | 0.0 | 0.00 | 0.00 | 0.00 | 84 | 1010.0 |
| 20260906004516 | 25 | 58 | 0.0 | 0.0 | 0.00 | 0.00 | 0.00 | 83 | 1010.2 |
| 20260906003016 | 25 | 58 | 0.0 | 0.0 | 0.00 | 0.00 | 0.00 | 81 | 1009.6 |
| 20260906001516 | 25 | 58 | 0.0 | 0.0 | 0.00 | 0.00 | 0.00 | 80 | 1009.6 |
| 20260906000015 | 25 | 58 | 0.0 | 0.0 | 0.00 | 0.00 | 0.00 | 79 | 1009.5 |
| 20260905234515 | 25 | 61 | 0.0 | 4.8 | 0.00 | 0.00 | 0.00 | 78 | 1009.4 |
| 20260905233023 | 26 | 63 | 0.0 | 0.0 | 0.00 | 0.00 | 0.00 | 78 | 1009.5 |
| 20260905231514 | 26 | 65 | 0.0 | 6.4 | 0.00 | 0.00 | 0.00 | 77 | 1009.6 |
| 20260905230013 | 27 | 64 | 1.6 | 9.7 | 0.00 | 0.00 | 0.00 | 75 | 1010.0 |
| 20260905224513 | 28 | 44 | 1.6 | 12.9 | 0.00 | 0.00 | 0.00 | 71 | 1009.8 |
| 20260905223012 | 31 | 59 | 3.2 | 14.5 | 0.00 | 0.00 | 0.00 | 66 | 1009.3 |
| 20260905221512 | 32 | 296 | 0.0 | 6.4 | 0.00 | 0.00 | 0.00 | 65 | 1008.7 |
| 20260905220011 | 32 | 309 | 1.6 | 12.9 | 0.00 | 0.00 | 0.00 | 64 | 1008.9 |
| 20260905214511 | 32 | 300 | 1.6 | 9.7 | 0.00 | 0.00 | 0.00 | 64 | 1008.9 |
| 20260905213009 | 32 | 285 | 0.0 | 6.4 | 0.00 | 0.00 | 0.00 | 64 | 1008.9 |
| 20260905211508 | 32 | 325 | 0.0 | 9.7 | 0.00 | 0.00 | 0.00 | 64 | 1008.7 |
| 20260905210007 | 32 | 300 | 0.0 | 11.3 | 0.00 | 0.00 | 0.00 | 63 | 1009.0 |
| 20260905204509 | 32 | 315 | 0.0 | 9.7 | 0.00 | 0.00 | 0.00 | 61 | 1009.3 |
| 20260905203004 | 33 | 295 | 1.6 | 12.9 | 0.00 | 0.00 | 0.00 | 57 | 1009.3 |
| 20260905201501 | 33 | 325 | 0.0 | 14.5 | 0.00 | 0.00 | 0.00 | 56 | 1009.4 |
| 20260905194600 | 33 | 286 | 0.0 | 3.2 | 0.00 | 0.00 | 0.00 | 56 | 1009.6 |
| 20260905193057 | 33 | 302 | 1.6 | 9.7 | 0.00 | 0.00 | 0.00 | 56 | 1009.8 |
| 20260905191612 | 33 | 293 | 0.0 | 8.0 | 0.00 | 0.00 | 0.00 | 56 | 1010.0 |
| 20260905190054 | 33 | 211 | 0.0 | 9.7 | 0.00 | 0.00 | 0.00 | 56 | 1010.2 |
| 20260905184606 | 33 | 222 | 0.0 | 9.7 | 0.00 | 0.00 | 0.00 | 56 | 1010.3 |
| 20260905183051 | 32 | 269 | 0.0 | 6.4 | 0.00 | 0.00 | 0.00 | 57 | 1010.7 |
| 20260905181550 | 32 | 296 | 1.6 | 9.7 | 0.00 | 0.00 | 0.00 | 56 | 1010.7 |
| 20260905180050 | 32 | 309 | 0.0 | 9.7 | 0.00 | 0.00 | 0.00 | 59 | 1010.8 |
| 20260905174546 | 31 | 272 | 1.6 | 11.3 | 0.00 | 0.00 | 0.00 | 60 | 1010.9 |
| 20260905173038 | 30 | 236 | 1.6 | 12.9 | 0.00 | 0.00 | 0.00 | 61 | 1011.0 |
| 20260905171536 | 30 | 225 | 0.0 | 9.7 | 0.00 | 0.00 | 0.00 | 63 | 1011.3 |
| 20260905170032 | 28 | 218 | 0.0 | 8.0 | 0.00 | 0.00 | 0.00 | 66 | 1011.5 |
| 20260905164528 | 28 | 220 | 1.6 | 11.3 | 0.00 | 0.00 | 0.00 | 67 | 1011.8 |
| 20260905163026 | 27 | 242 | 0.0 | 4.8 | 0.00 | 0.00 | 0.00 | 70 | 1012.0 |
| 20260905161525 | 27 | 236 | 0.0 | 0.0 | 0.00 | 0.00 | 0.00 | 72 | 1012.4 |
| 20260905160041 | 27 | 236 | 0.0 | 6.4 | 0.00 | 0.00 | 0.00 | 66 | 1012.3 |
| 20260905154522 | 28 | 223 | 1.6 | 9.7 | 0.00 | 0.00 | 0.00 | 66 | 1012.2 |
| 20260905153018 | 27 | 272 | 0.0 | 8.0 | 0.00 | 0.00 | 0.00 | 69 | 1012.1 |
| 20260905151515 | 26 | 207 | 1.6 | 11.3 | 0.00 | 0.00 | 0.00 | 71 | 1012.1 |
| 20260905150021 | 26 | 218 | 0.0 | 11.3 | 0.00 | 0.00 | 0.00 | 74 | 1012.0 |
| 20260905144530 | 25 | 185 | 1.6 | 19.3 | 0.00 | 0.00 | 0.00 | 75 | 1012.0 |
| 20260905143010 | 25 | 210 | 6.4 | 11.3 | 0.00 | 0.00 | 0.00 | 76 | 1012.2 |
| 20260905141613 | 24 | 173 | 4.8 | 16.1 | 0.00 | 0.00 | 0.00 | 78 | 1012.4 |
| 20260905140103 | 24 | 132 | 0.0 | 11.3 | 0.00 | 0.00 | 0.00 | 79 | 1012.4 |
| 20260905134606 | 23 | 124 | 1.6 | 16.1 | 0.00 | 0.00 | 0.00 | 81 | 1012.4 |
| 20260905133057 | 23 | 163 | 1.6 | 16.1 | 0.00 | 0.00 | 0.00 | 82 | 1012.6 |
| 20260905131556 | 22 | 134 | 1.6 | 11.3 | 0.00 | 0.00 | 0.00 | 82 | 1012.6 |
| 20260905130047 | 22 | 117 | 1.6 | 14.5 | 0.00 | 0.00 | 0.00 | 84 | 1012.5 |
| 20260905124543 | 22 | 130 | 4.8 | 14.5 | 0.00 | 0.00 | 0.00 | 86 | 1012.3 |
| 20260905123038 | 21 | 140 | 1.6 | 9.7 | 0.00 | 0.00 | 0.00 | 87 | 1012.3 |
| 20260905121537 | 21 | 150 | 0.0 | 14.5 | 0.00 | 0.00 | 0.00 | 87 | 1012.1 |
| 20260905114509 | 21 | 124 | 1.6 | 11.3 | 0.00 | 0.00 | 0.00 | 87 | 1012.2 |
| 20260905113013 | 21 | 79 | 0.0 | 6.4 | 0.00 | 0.00 | 0.00 | 87 | 1012.2 |
| 20260905111506 | 21 | 123 | 0.0 | 12.9 | 0.00 | 0.00 | 0.00 | 87 | 1012.1 |
| 20260905110010 | 21 | 84 | 0.0 | 12.9 | 0.00 | 0.00 | 0.00 | 87 | 1012.2 |
| 20260905104503 | 21 | 51 | 1.6 | 16.1 | 0.00 | 0.00 | 0.00 | 87 | 1012.1 |
| 20260905103003 | 22 | 59 | 1.6 | 17.7 | 0.00 | 0.00 | 0.00 | 87 | 1012.3 |
| 20260905101557 | 22 | 53 | 4.8 | 27.4 | 0.00 | 0.00 | 0.00 | 90 | 1012.0 |
| 20260905100112 | 23 | 165 | 0.0 | 0.0 | 0.00 | 0.00 | 0.00 | 96 | 1010.9 |
| 20260905094606 | 23 | 165 | 0.0 | 0.0 | 0.00 | 0.00 | 0.00 | 95 | 1010.7 |
| 20260905093056 | 23 | 165 | 0.0 | 0.0 | 0.00 | 0.00 | 0.00 | 95 | 1010.8 |
| 20260905091605 | 23 | 165 | 0.0 | 0.0 | 0.00 | 0.00 | 0.00 | 95 | 1010.7 |
| 20260905090051 | 23 | 165 | 0.0 | 0.0 | 0.00 | 0.00 | 0.00 | 95 | 1010.7 |
| 20260905084552 | 23 | 165 | 0.0 | 0.0 | 0.00 | 0.00 | 0.00 | 95 | 1010.6 |
| 20260905083049 | 23 | 165 | 0.0 | 0.0 | 0.00 | 0.00 | 0.00 | 94 | 1010.6 |
| 20260905081549 | 23 | 165 | 0.0 | 0.0 | 0.00 | 0.00 | 0.00 | 94 | 1010.6 |
| 20260905080048 | 23 | 165 | 0.0 | 0.0 | 0.00 | 0.00 | 0.00 | 94 | 1010.5 |
| 20260905074556 | 23 | 166 | 0.0 | 0.0 | 0.00 | 0.00 | 0.00 | 94 | 1010.2 |
| 20260905073100 | 23 | 166 | 0.0 | 0.0 | 0.00 | 0.00 | 0.00 | 94 | 1009.8 |
| 20260905071545 | 23 | 152 | 0.0 | 0.0 | 0.00 | 0.00 | 0.00 | 94 | 1009.9 |
| 20260905070045 | 23 | 125 | 0.0 | 0.0 | 0.00 | 0.00 | 0.00 | 94 | 1009.9 |
| 20260905064550 | 23 | 125 | 0.0 | 0.0 | 0.00 | 0.00 | 0.00 | 93 | 1010.1 |
| 20260905063041 | 23 | 125 | 0.0 | 0.0 | 0.00 | 0.00 | 0.00 | 93 | 1010.4 |
| 20260905061538 | 23 | 125 | 0.0 | 0.0 | 0.00 | 0.00 | 0.00 | 92 | 1010.8 |
| 20260905060041 | 23 | 125 | 0.0 | 0.0 | 0.00 | 0.00 | 0.00 | 92 | 1010.7 |
| 20260905054536 | 23 | 125 | 0.0 | 1.6 | 0.00 | 0.00 | 0.00 | 91 | 1010.7 |
| 20260905053036 | 23 | 125 | 0.0 | 0.0 | 0.00 | 0.00 | 0.00 | 91 | 1011.1 |